www.pogodaiklimat.ru

Погода и климат >> Архив погоды >> Узбекистан >> Жаслык


ПОГОДА в Жаслыке

  • Прогноз погоды в Жаслыке
  • Монитор погоды в Жаслыке
  • Климат города

АРХИВ ПОГОДЫ в Жаслыке

Время (UTC), дата Ветер
(напр.,м/с)
 
Видим.   Явления Облачность Т
(С)
Тd
(С)
f
(%)
Тe
(С)
Тes
(С)
Комфортность P
(гПа)
Po
(гПа)
Тmin
(С)
Tmax
(С)
R
(мм)
R24
(мм)
S
(см)
21 16.07 С 3 20 км ясно +22.2 +1.8 26 +22 +22 комфорт 1015.4 999.9
00 17.07 С 4 20 км ясно +18.5 +4.5 40 +19 +19 1016.0 1000.6
03 17.07 СВ 5 20 км ясно +24.0 +10.2 42 +25 +27 комфорт 1016.9 1001.5
06 17.07 В 5 20 км ясно +31.8 +6.4 20 +30 +38 жарко 1016.6 1002.2 +18.2
09 17.07 СВ 4 20 км 1/1 1000 м
[Cu hum]
+33.5 +5.4 17 +31 +42 жарко 1017.3 1001.9
12 17.07 СВ 7 20 км 1/1 1000 м
[Cu hum]
+35.1 +4.0 14 +32 +34 жарко 1016.2 1000.8
15 17.07 СВ 3 20 км ясно +33.5 +4.1 16 +31 +31 жарко 1015.2 999.8 +35.9
18 17.07 СВ 2 20 км ясно +26.8 +5.7 26 +26 +26 жарко 1016.4 1001.0 +35.9
21 17.07 Ю 2 20 км ясно +23.5 +7.1 35 +24 +24 комфорт 1016.3 1000.8
00 18.07 З 2 20 км ясно +21.4 +7.4 40 +22 +22 комфорт 1016.2 1000.7
03 18.07 З 2 20 км ясно +25.3 +8.9 35 +26 +29 жарко 1017.3 1001.8
06 18.07 З 5 20 км ясно +33.2 +6.6 19 +31 +39 жарко 1017.0 1001.6 +18.7
09 18.07 СЗ 3 20 км ясно +35.6 +4.5 14 +33 +48 жарко 1015.9 1000.5
12 18.07 З 3 20 км 1/1
[Cu hum]
+37.0 +3.2 12 +34 +40 очень
жарко
1014.5 999.0
15 18.07 В 5 20 км 1/0
[Ac trans]
+35.3 +3.3 14 +32 +32 жарко 1013.9 998.4 +38.2
18 18.07 В 3 20 км ясно +28.9 +5.7 23 +28 +28 жарко 1014.7 999.2 +38.2
21 18.07 В 1 20 км ясно +23.1 +7.0 35 +24 +24 комфорт 1014.7 999.3
00 19.07 С 1 20 км ясно +20.4 +8.4 46 +23 +23 комфорт 1014.8 999.4
03 19.07 С 1 20 км ясно +26.1 +8.7 33 +26 +30 жарко 1015.6 1000.2
06 19.07 С 1 20 км ясно +34.9 +3.4 14 +32 +49 жарко 1015.8 1000.4 +19.8
09 19.07 С 5 20 км 3/3 1000 м
[Cu med, cong]
+37.1 +5.1 14 +34 +41 очень
жарко
1014.7 999.2
12 19.07 ЮВ 13 20 км 6/6 1000 м
[Cu med, cong]
+37.7 +3.6 12 +35 +35 очень
жарко
1013.1 997.7
15 19.07 В 8 20 км 1/1 1000 м
[Cu med, cong]
+35.9 +4.2 14 +33 +33 жарко 1012.6 997.1 +39.0
18 19.07 В 2 20 км ясно +29.4 +6.6 24 +28 +28 жарко 1013.4 998.0 +39.0
21 19.07 В 2 20 км ясно +25.6 +7.9 32 +26 +26 жарко 1013.0 997.6
00 20.07 В 1 20 км ясно +21.9 +9.5 45 +23 +23 комфорт 1012.5 997.1
03 20.07 В 1 20 км ясно +26.9 +9.4 33 +27 +31 жарко 1013.1 997.7
06 20.07 В 4 20 км 3/0
[Ci fib]
+34.8 +6.4 17 +33 +42 жарко 1013.4 998.0 +21.3
09 20.07 В 7 20 км 5/0
[Ci sp]
+37.3 +4.6 13 +34 +39 очень
жарко
1012.4 997.0
12 20.07 В 13 20 км 8/0
[Ci sp]
+37.5 +4.5 13 +35 +35 очень
жарко
1011.1 995.6
15 20.07 В 13 20 км 6/0
[Ci sp]
+35.1 +4.3 15 +32 +32 жарко 1011.1 995.7 +38.9
18 20.07 ЮВ 7 20 км 3/0
[Ci sp]
+28.1 +6.6 26 +27 +27 жарко 1011.9 996.5 +38.9
21 20.07 В 2 20 км 3/0
[Ci sp]
+23.8 +8.3 37 +24 +24 комфорт 1011.7 996.2
00 21.07 В 3 20 км 3/0
[Ci sp]
+22.7 +9.1 42 +24 +24 комфорт 1012.2 996.7
03 21.07 В 2 20 км ясно +27.2 +8.8 31 +27 +30 жарко 1013.0 997.6
06 21.07 ЮВ 2 20 км ясно +35.6 +5.0 15 +33 +48 жарко 1013.4 998.0 +21.4
09 21.07 В 5 20 км ясно +38.2 +4.8 13 +35 +45 очень
жарко
1012.6 997.2
12 21.07 В 3 20 км ясно +38.7 +5.2 13 +36 +43 очень
жарко
1011.8 996.3
15 21.07 В 5 20 км ясно +36.8 +5.4 14 +34 +34 очень
жарко
1011.6 996.2 +39.4
18 21.07 В 2 20 км ясно +30.1 +7.3 24 +29 +29 жарко 1012.6 997.2 +39.4
21 21.07 СВ 1 20 км ясно +24.3 +8.5 37 +25 +25 комфорт 1012.1 996.7
00 22.07 В 1 20 км ясно +23.7 +8.5 38 +24 +24 комфорт 1010.8 996.1
03 22.07 Ю 1 20 км ясно +26.5 +9.8 35 +27 +31 жарко 1010.5 995.9
06 22.07 З 3 20 км ясно +36.5 +7.7 17 +34 +47 очень
жарко
1012.8 998.6 +22.8
09 22.07 З 1 20 км ясно +40.1 +5.1 12 +37 +58 опасность
солнечного
удара
1012.8 997.3
12 22.07 В 2 20 км ясно +40.4 +4.6 11 +37 +45 очень
жарко
1010.6 996.6
15 22.07 ЮВ 2 20 км ясно +38.7 +4.1 12 +36 +36 очень
жарко
1010.8 995.4 +41.3
18 22.07 Ю 2 20 км ясно +31.7 +3.9 17 +29 +29 жарко 1010.9 995.4 +41.3
21 22.07 ЮЗ 2 20 км ясно +29.5 +5.7 22 +28 +28 жарко 1010.7 995.2
00 23.07 З 2 20 км ясно +25.1 +5.9 29 +25 +25 комфорт 1009.9 994.5
03 23.07 ЮВ 2 20 км ясно +28.1 +6.6 26 +27 +31 жарко 1010.8 995.3
06 23.07 ЮЗ 4 20 км ясно +37.9 +6.8 15 +35 +45 очень
жарко
1010.3 994.9 +23.7
09 23.07 З 3 20 км ясно +40.9 +4.4 11 +38 +53 опасность
солнечного
удара
1009.1 993.6
12 23.07 З 3 20 км ясно +42.0 +2.6 9 +39 +45 очень
жарко
1007.0 993.1
15 23.07 штиль 0 20 км 4/0
[Ac trans]
+36.4 +11.1 22 +36 +36 очень
жарко
1007.0 991.6 +42.8
18 23.07 Ю 4 20 км 3/0
[Ac trans]
+33.9 +6.2 18 +32 +32 жарко 1007.3 991.8 +42.8

 

Местоположение метеостанции Жаслык (Каракалпакстан, Узбекистан): широта 43.88 долгота 57.52 высота над уровнем моря 128 м.

В архиве по умолчанию представлена погода в Жаслыке за последнюю неделю. Архивные данные за месяц целиком и за предыдущие месяцы, начиная с января 2011 года, Вы можете получить, выбрав интересующий диапазон дат из раскрывающегося списка и нажав кнопку "Ввод!".

Внимание! Время в таблицах - всемирное. Для получения местного времени необходимо прибавить поправку, которая в Жаслыке равна 5 ч.

Смотрите также архив погоды в соседних городах и на ближайших метеорологических станциях:

Погода в Муйнаке (Каракалпакстан, Узбекистан) (98 км)
Погода в Каракалпакии (Каракалпакстан, Узбекистан) (144 км)
Погода в Кунграде (Каракалпакстан, Узбекистан) (144 км)
Погода в Саме (Мангистауская область, Казахстан) (202 км)
Погода в Чимбае (Каракалпакстан, Узбекистан) (213 км)
Погода в Кенеургенче (Дашогузский велаят, Туркменистан) (219 км)
Погода в Тахтакупыре (Каракалпакстан, Узбекистан) (231 км)
Погода в Нукусе (Каракалпакстан, Узбекистан) (233 км)
Погода в Бейнеу (Мангистауская область, Казахстан) (244 км)
Погода в Шах-Сенеме (Дашогузский велаят, Туркменистан) (274 км)

Пояснения к столбцам:

Ветер - указаны скорость ветра в м/с - средняя за 10 мин, порывы в срок и между сроками (в фигурных скобках) и направление, откуда дует ветер: С - северный, СВ - северо-восточный, В - восточный, ЮВ - юго-восточный, Ю - южный, ЮЗ - юго-западный, З - западный, СЗ - северо-западный.
Видимость - горизонтальная дальность видимости в метрах или километрах. При видимости от 1 до 10 км при отсутствии осадков обычно наблюдается дымка, при ухудшении видимости до 1 км и менее - туман. В сухую погоду видимость может ухудшаться дымом, пылью или мглою.
Явления - указаны атмосферные явления, наблюдавшиеся в срок или в последний час перед сроком; фигурными скобками обозначены явления, наблюдавшиеся между сроками (за 1-3 часа до срока); квадратными скобками обозначены град или гололедные отложения с указанием их диаметра в мм.
Облачность - указаны через наклонную черту общая и нижняя облачность в баллах и высота нижней границы облаков в метрах; квадратными скобками обозначены формы облаков: Ci - перистые, Cs - перисто-слоистые, Cc - перисто-кучевые, Ac - высококучевые, As - высокослоистые, Sc - слоисто-кучевые, Ns - слоисто-дождевые, Cu - кучевые, Cb - кучево-дождевые. Подробнее классификацию облаков см. в Атласе облаков (PDF).
T - Температура воздуха - температура, измеренная на высоте 2 м над землей.
Td - Температура точки росы - температура, при понижении до которой содержащийся в воздухе водяной пар достигнет насыщения.
f - Относительная влажность воздуха - влажноcть воздуха, измеренная на высоте 2 м над землей.
Te - Эффективная температура - температура, которую ощущает одетый по сезону человек в тени. Характеристика душности погоды. При расчете учитывается влияние влажности воздуха и скорости ветра на теплоощущения человека.
Tes - Эффективная температура на солнце - температура, которую ощущает человек, с поправкой на солнечный нагрев. Характеристика знойности погоды. Зависит от высоты солнца над горизонтом, облачности и скорости ветра. Ночью, в пасмурную погоду, а также при ветре 12 м/с и более поправка равна нулю.
P - Атмосферное давление - приведенное к уровню моря атмосферное давление.
Po - Атмосферное давление - измеренное на уровне метеостанции атмосферное давление.
Tmin - Минимальная температура - минимум температуры воздуха на высоте 2 м над землей.
Tmax - Максимальная температура - максимум температуры воздуха на высоте 2 м над землей.
R - Количество осадков - Количество выпавших осадков за период времени, мм. При наведении курсора мыши на число - период времени, за который выпало указанное количество осадков.
R24 - Количество осадков - Количество выпавших осадков за 24 часа, мм.
S - Снежный покров - Высота снежного покрова, см. При наведении курсора мыши на число - состояние снежного покрова и степень покрытия местности в баллах.